TimeCST,TemperatureF,Dew PointF,Humidity,Sea Level PressureIn,VisibilityMPH,Wind Direction,Wind SpeedMPH,Gust SpeedMPH,PrecipitationIn,Events,Conditions,WindDirDegrees,DateUTC
12:55 AM,29.3,17.1,60,30.22,10.0,SSW,4.6,-,N/A,,Clear,200,2012-12-12 06:55:00
1:55 AM,28.6,16.0,59,30.22,10.0,SSW,4.6,-,N/A,,Clear,200,2012-12-12 07:55:00
2:55 AM,24.4,17.2,74,30.23,10.0,South,4.6,-,N/A,,Clear,170,2012-12-12 08:55:00
3:55 AM,22.3,17.2,81,30.23,10.0,SSE,6.9,-,N/A,,Clear,160,2012-12-12 09:55:00
4:55 AM,21.7,17.4,83,30.24,10.0,South,4.6,-,N/A,,Clear,170,2012-12-12 10:55:00
5:55 AM,22.1,16.9,80,30.26,10.0,South,5.8,-,N/A,,Clear,170,2012-12-12 11:55:00
6:55 AM,21.6,16.9,82,30.28,10.0,SSE,5.8,-,N/A,,Clear,160,2012-12-12 12:55:00
7:55 AM,23.5,18.0,79,30.30,10.0,SSE,8.1,-,N/A,,Clear,150,2012-12-12 13:55:00
8:55 AM,30.0,19.4,65,30.31,10.0,SSE,4.6,-,N/A,,Clear,160,2012-12-12 14:55:00
9:55 AM,37.4,22.3,54,30.32,10.0,SSE,4.6,-,N/A,,Clear,150,2012-12-12 15:55:00
10:55 AM,45.5,13.6,28,30.31,10.0,Variable,4.6,-,N/A,,Clear,0,2012-12-12 16:55:00
11:55 AM,49.6,12.7,23,30.29,10.0,SSW,9.2,-,N/A,,Clear,200,2012-12-12 17:55:00
12:55 PM,50.7,7.5,17,30.27,10.0,SSW,9.2,-,N/A,,Clear,200,2012-12-12 18:55:00
1:55 PM,50.9,10.4,20,30.25,10.0,South,10.4,-,N/A,,Clear,180,2012-12-12 19:55:00
2:55 PM,50.4,12.2,22,30.25,10.0,South,9.2,-,N/A,,Clear,170,2012-12-12 20:55:00
3:55 PM,49.5,12.4,23,30.26,10.0,SSW,4.6,-,N/A,,Clear,200,2012-12-12 21:55:00
4:55 PM,44.1,15.6,32,30.27,10.0,South,5.8,-,N/A,,Clear,180,2012-12-12 22:55:00
5:55 PM,42.8,14.0,31,30.26,10.0,South,6.9,-,N/A,,Clear,170,2012-12-12 23:55:00
6:55 PM,37.0,16.0,42,30.27,10.0,SSE,6.9,-,N/A,,Clear,150,2012-12-13 00:55:00
7:55 PM,36.5,16.7,45,30.27,10.0,SSE,8.1,-,N/A,,Clear,150,2012-12-13 01:55:00
8:55 PM,36.3,17.6,47,30.26,10.0,SSE,10.4,-,N/A,,Clear,160,2012-12-13 02:55:00
9:55 PM,36.1,17.8,47,30.25,10.0,SSE,13.8,-,N/A,,Clear,150,2012-12-13 03:55:00
10:55 PM,35.6,20.1,53,30.27,10.0,SSE,9.2,-,N/A,,Clear,150,2012-12-13 04:55:00
11:55 PM,33.4,21.0,60,30.27,10.0,SSE,5.8,-,N/A,,Clear,160,2012-12-13 05:55:00